, LA

(GMT )
Boothville

Weather History for KBVE - October, 2011

Change the Weather History Date:

Monday, October 10, 2011

  Actual Average Record
Temperature  
Mean Temperature 76 °F -  
Max Temperature 79 °F - - ()
Min Temperature 73 °F - - ()
Cooling Degree Days 10    
Growing Degree Days 26 (Base 50)    
Moisture  
Dew Point 67 °F    
Average Humidity 75    
Maximum Humidity 84    
Minimum Humidity 65    
Precipitation  
Precipitation 0.00 in - - ()
Sea Level Pressure  
Sea Level Pressure 29.92 in    
Wind  
Wind Speed 12 mph (NE)    
Max Wind Speed 18 mph    
Max Gust Speed 25 mph    
Visibility 10 miles    
Events      
T = Trace of Precipitation, MM = Missing Value Source: NWS Daily Summary

Daily Weather History Graph

Daily Weather History Graph

Search for Another Location

Airport or City:

Trip Planner

Search our weather history database for the weather conditions in past years. The results will help you decide how hot, cold, wet, or windy it might be!

Date:

Astronomy

Oct. 10, 2011 Rise Set
Actual Time 6:55 AM CDT 6:33 PM CDT
Civil Twilight 6:31 AM CDT 6:56 PM CDT
Nautical Twilight 6:04 AM CDT 7:24 PM CDT
Astronomical Twilight 5:36 AM CDT 7:51 PM CDT
Moon 5:36 PM CDT (10/10) 5:39 AM CDT (10/10)
Length of Visible Light 12h 24m
Length of Day
11h 37m
Waxing Gibbous, 98% of the Moon is Illuminated
Oct 10
Waxing Gibbous
Oct 11
Full
Oct 19
Last Quarter
Oct 26
New
Nov 2
First Quarter

Hourly Weather History & Observations

Time (CDT) Temp. Dew Point Humidity Pressure Visibility Wind Dir Wind Speed Gust Speed Precip Events Conditions
12:31 AM 75.2 °F 66.2 °F 73% 29.96 in 10.0 mi ENE 13.8 mph 21.9 mph N/A   Mostly Cloudy
12:51 AM 75.0 °F 66.9 °F 76% 29.95 in 10.0 mi ENE 13.8 mph 25.3 mph N/A   Overcast
1:51 AM 75.0 °F 68.0 °F 79% 29.95 in 10.0 mi ENE 15.0 mph 24.2 mph N/A   Mostly Cloudy
2:00 AM 75.2 °F 68.0 °F 78% 29.95 in 10.0 mi ENE 13.8 mph 23.0 mph N/A   Mostly Cloudy
2:29 AM 75.2 °F 68.0 °F 78% 29.94 in 10.0 mi ENE 18.4 mph 24.2 mph N/A   Mostly Cloudy
2:36 AM 75.2 °F 68.0 °F 78% 29.94 in 10.0 mi ENE 15.0 mph 25.3 mph N/A   Scattered Clouds
2:51 AM 75.0 °F 66.9 °F 76% 29.93 in 10.0 mi ENE 13.8 mph 23.0 mph N/A   Mostly Cloudy
3:23 AM 73.4 °F 66.2 °F 78% 29.93 in 10.0 mi NE 15.0 mph 21.9 mph N/A   Mostly Cloudy
3:33 AM 73.4 °F 66.2 °F 78% 29.93 in 10.0 mi ENE 15.0 mph 23.0 mph N/A   Overcast
3:51 AM 73.9 °F 68.0 °F 82% 29.92 in 10.0 mi NE 13.8 mph 19.6 mph N/A   Overcast
4:51 AM 73.9 °F 66.9 °F 79% 29.91 in 10.0 mi NE 13.8 mph 19.6 mph N/A   Clear
5:51 AM 73.0 °F 66.9 °F 81% 29.91 in 10.0 mi NE 11.5 mph 19.6 mph N/A   Clear
6:51 AM 73.0 °F 66.9 °F 81% 29.93 in 10.0 mi NE 12.7 mph 20.7 mph N/A   Partly Cloudy
7:48 AM 73.4 °F 66.2 °F 78% 29.94 in 10.0 mi ENE 13.8 mph 17.3 mph N/A   Mostly Cloudy
7:51 AM 73.9 °F 66.9 °F 79% 29.94 in 10.0 mi NE 11.5 mph - N/A   Mostly Cloudy
8:28 AM 75.2 °F 66.2 °F 73% 29.95 in 10.0 mi NE 12.7 mph 18.4 mph N/A   Scattered Clouds
8:49 AM 75.2 °F 66.2 °F 73% 29.96 in 10.0 mi NE 10.4 mph - N/A   Mostly Cloudy
8:51 AM 75.0 °F 66.9 °F 76% 29.96 in 10.0 mi NE 9.2 mph - N/A   Mostly Cloudy
9:51 AM 75.9 °F 66.9 °F 74% 29.97 in 10.0 mi ENE 11.5 mph 23.0 mph N/A   Overcast
10:51 AM 77.0 °F 68.0 °F 74% 29.97 in 10.0 mi NE 10.4 mph - N/A   Mostly Cloudy
11:26 AM 78.8 °F 66.2 °F 65% 29.95 in 10.0 mi NNE 9.2 mph 16.1 mph N/A   Partly Cloudy
11:51 AM 78.1 °F 66.9 °F 68% 29.95 in 10.0 mi NE 8.1 mph - N/A   Partly Cloudy
12:51 PM 78.1 °F 66.9 °F 68% 29.93 in 10.0 mi NNE 10.4 mph - N/A   Scattered Clouds
1:07 PM 78.8 °F 66.2 °F 65% 29.93 in 10.0 mi NNE 9.2 mph - N/A   Mostly Cloudy
1:51 PM 78.1 °F 66.9 °F 68% 29.91 in 10.0 mi NE 8.1 mph - N/A   Mostly Cloudy
2:51 PM 78.1 °F 68.0 °F 71% 29.89 in 10.0 mi NNE 6.9 mph - N/A   Scattered Clouds
3:51 PM 77.0 °F 66.9 °F 71% 29.88 in 10.0 mi NNE 6.9 mph - N/A   Clear
4:51 PM 77.0 °F 66.0 °F 69% 29.87 in 10.0 mi Calm Calm - N/A   Clear
5:51 PM 77.0 °F 66.0 °F 69% 29.86 in 10.0 mi Calm Calm - N/A   Clear
6:51 PM 73.0 °F 66.9 °F 81% 29.87 in 10.0 mi WNW 3.5 mph - N/A   Scattered Clouds
7:51 PM 73.0 °F 66.9 °F 81% 29.87 in 10.0 mi NNW 3.5 mph - N/A   Scattered Clouds
8:51 PM 73.0 °F 68.0 °F 84% 29.87 in 10.0 mi NNW 4.6 mph - N/A   Partly Cloudy
9:51 PM 73.9 °F 66.0 °F 76% 29.89 in 10.0 mi NE 13.8 mph 20.7 mph N/A   Partly Cloudy
10:51 PM 73.0 °F 64.9 °F 76% 29.88 in 10.0 mi NE 11.5 mph 21.9 mph N/A   Clear
11:51 PM 73.0 °F 64.0 °F 73% 29.88 in 10.0 mi NE 10.4 mph - N/A   Partly Cloudy